DELTA 1 DEB

Satellite information

Favourite Embed

Satellite Type and Status

DEBRISIN ORBIT

Key statistics

Satellite DELTA 1 DEB at a glance.

Uptime

19282

Days in orbit

Revolutions

≈ 14.8

Per day

Orbit

SSO

Sun Synchronous Orbit

Inclination

98.8

Latest

Satellite identification and parameters

Extended collection of information and parameters for DELTA 1 DEB.

Object identification

Identified? True

Debris? True

Object name: DELTA 1 DEB

International designator: 1972-058BG

Object number (NORAD): 7890

Object ID (CCSDS): 7890

Country: UNITED STATES OF AMERICA (US)

Current information (Y/N): Y

RCS size: SMALL

Orbital parameters

Period: 97.253 minutes

Inclination: 98.8492 deg

SMA: 7005.342 km

Apoapsis: 705.378 km

Periapsis: 549.035 km

RAAN: 188.9843 deg

Eccentricy: 0.0111589

Argument of periapsis: 239.6955 deg

Mean anomaly: 119.3178 deg

Mean motion: 14.80671764 rev/day

Mean motion (dot): 0.00007519 rev/day2

B* drag term: 0.00088681 1/REarth

Two-line elements (TLE)

Creation date: May 8, 2025, 3:01 a.m.

Reference frame: TEME

Reference center: EARTH

Epoch: May 7, 2025, 4:13 p.m. UTC

TLE line 0: 0 DELTA 1 DEB

TLE line 1: 1 07890U 72058BG 25127.67592333 .00007519 00000-0 88681-3 0 9997

TLE line 2: 2 07890 98.8492 188.9843 0111589 239.6955 119.3178 14.80671764580255

Live tracking on map

Real-time ground track for satellite DELTA 1 DEB.

In-orbit conjunctions

A list of the most updated potential collisions computed for object DELTA 1 DEB.

Target Orbit TCA Probability of collision Miss distance Type
STEP 2 LEO 2025-03-01 07:41:43 0.0002403837 148.0 (m) PAYLOAD
CZ-2C R/B SSO 2025-01-27 03:43:30 0.000130066 887.0 (m) ROCKET BODY
SL-8 R/B LEO 2024-10-09 22:39:46 0.0005616627 181.0 (m) ROCKET BODY
COSMOS 2251 DEB LEO 2024-08-11 00:55:45 0.0001112393 112.0 (m) DEBRIS

Associated space launch

Earth observation satellite

DELTA 1 DEB was lifted into orbit during the mission ‘Delta 0900 | Landsat 1’, on board a Delta 0900 space rocket.

The launch took place on July 23, 1972, 6:06 p.m. from Space Launch Complex 2W.

For more information about the launch, click the button.

Launch to space Delta 0900 | Landsat 1
Delta 0900 | Landsat 1

Agency: N/A

Status: Launch Successful

Launch date: July 23, 1972, 6:06 p.m. UTC

Rocket: Delta 0900

Launch pad: Space Launch Complex 2W

Location: Vandenberg SFB, CA, USA

...

Latest news about this satellite

There are no fresh news available about this satellite. Check back as we update our databases every day.


Newsletter sign-up

Weekly statistics, charts and insights to help you stay on top of the space industry.